Regional Weather Roundup
Issued by NWS Wakefield, VA

Home | Current Version | Previous Version | Text Only | Print | Product List | Glossary Off
Versions: 1 2 3 4 5 6 7 8 9 10 11 12 13 14 15 16 17 18 19 20 21 22 23 24 25 26 27

000
ASUS41 KAKQ 051915
RWRAKQ

REGIONAL WEATHER ROUNDUP
NATIONAL WEATHER SERVICE WAKEFIELD VA
300 PM EDT THU MAY 05 2016

Note: "fair" indicates few or no clouds below 12,000 feet with no
significant weather and/or obstructions to visibility. * = Denotes
station may not report precipitation (e.g., rain,snow,etc.),
thunder or fog.

VAZ042-051-052>054-056-052000-
NORTHERN VIRGINIA

CITY           SKY/WX    TMP DP  RH WIND       PRES   REMARKS
WASH NATIONAL  CLOUDY    56  49  77 NE8       29.65S
DULLES         CLOUDY    54  47  77 N13       29.65F
FORT BELVOIR   CLOUDY    55  47  77 VRB5      29.64F
QUANTICO       CLOUDY    56  48  74 NE14      29.65R
FREDERICKSBRG* CLOUDY    55  54  94 NE7       29.62S
STAFFORD*      CLOUDY    54  48  81 NE9       29.67S
WARRENTON      CLOUDY    57  46  68 N10G16    29.64S
CULPEPER*      CLOUDY    55  51  87 N6        29.65S
MANASSAS*      CLOUDY    55  48  76 NE14      29.65S
LEESBURG*      CLOUDY    54  52  94 NE7       29.67S
WINCHESTER     CLOUDY    54  46  76 N3        29.67S
FRONT ROYAL*   CLOUDY    50  50 100 N6        29.66R
LURAY*         DRIZZLE   50  50 100 NE10      29.65S
$$

VAZ048-049-060>072-079>083-052000-
CENTRAL AND SOUTH CENTRAL VIRGINIA

CITY           SKY/WX    TMP DP  RH WIND       PRES   REMARKS
RICHMOND       CLOUDY    53  49  86 NE14      29.60R
CHESTERFIELD*  CLOUDY    54  41  62 N7        29.61S
PETERSBURG*    CLOUDY    56  56  99 N9        29.59S
HANOVER        CLOUDY    54  49  83 VRB3      29.62S
TAPPAHANNOCK*  CLOUDY    54  50  87 NE7       29.62R
QUINTON*       CLOUDY    54  49  85 NE8       29.59S
CHARLOTTSVILLE CLOUDY    55  48  77 NE10      29.63S
GORDONSVILLE*  CLOUDY    54  50  87 N8        29.62S
ORANGE*        CLOUDY    54  52  94 NE9G17    29.65S
LOUISA*        CLOUDY    57  54  88 N10       29.62R
BUMPASS*       CLOUDY    53  50  87 CALM      29.62R
FARMVILLE*     LGT RAIN  54  54 100 N5        29.60S
CREWE*         CLOUDY    53  53  99 CALM      29.59S
FORT PICKETT*  NOT AVBL
CHASE CITY*    CLOUDY    52  51  95 NE8       29.58S
CLARKSVILLE*   CLOUDY    52  52 100 NE3       29.59R
SOUTH HILL*    CLOUDY    52  51  97 N7        29.63S
LAWRENCEVILLE* CLOUDY    54  52  92 N5        29.57S
EMPORIA*       CLOUDY    54  52  94 N6        29.58R
$$

VAZ088>098-052000-
SOUTHEAST VIRGINIA

CITY           SKY/WX    TMP DP  RH WIND       PRES   REMARKS
NORFOLK        CLOUDY    54  48  80 NE16G26   29.57S
VIRGINIA BEACH CLOUDY    56  47  71 NE21G29   29.57R
NORFOLK NAVAL  CLOUDY    55  49  80 NE16      29.59S
WEST POINT*    CLOUDY    53  48  82 NE6       29.62R
SALUDA*        CLOUDY    52  49  89 NE8G16    29.60S
NEWPORT NEWS   CLOUDY    54  50  86 NE13G18   29.58S
LANGLEY AFB    CLOUDY    55  50  82 NE15      29.57F
FORT EUSTIS    CLOUDY    54  49  81 NE9       29.56F
WILLIAMSBURG*  FAIR      55  52  88 NE5       29.60R
HR EXEC AP*    CLOUDY    54  50  87 NE8G17    29.58F
FRANKLIN*      RAIN      54  50  88 NE9       29.57S
US460-WAKEFLD  CLOUDY    54  51  90 N6        29.58R
$$

VAZ020-022-025-037-045-052000-
WEST CENTRAL AND SOUTHWEST VIRGINIA

CITY           SKY/WX    TMP DP  RH WIND       PRES   REMARKS
STAUNTON*      LGT RAIN  53  52  96 N8        29.66S
WAYNESBORO*    CLOUDY    50  48  92 N9        29.64R
HOT SPRINGS VA LGT RAIN  42  42 100 NW13      29.63R VSB<1/4
LYNCHBURG      LGT RAIN  52  50  93 NE12      29.63R
DANVILLE       LGT RAIN  50  47  89 NW10      29.61S
SOUTH BOSTON*  CLOUDY    55  53  95 N5        29.59R
MARTINSVILLE   DRIZZLE   45  41  88 NW14G24   29.68R
ROANOKE        LGT RAIN  50  45  83 W10       29.67R
BLACKSBURG     LGT RAIN  44  42  92 W6        29.71S
DUBLIN*        LGT RAIN  45  42  90 NW6       29.71R
MARION*        LGT RAIN  44  39  82 W8        29.74R
HILLSVILLE*    LGT RAIN  40  38  93 NW13G18   29.68R
RICHLANDS*     LGT RAIN  42  29  59 NW7       29.73S
WISE*          CLOUDY    46  32  57 N13G18    29.76S
ABINGDON*      CLOUDY    51  34  52 N6G17     29.73R
$$

MDZ021>025-VAZ099-100-052000-
SOUTHERN MARYLAND AND THE DELMARVA PENINSULA

CITY           SKY/WX    TMP DP  RH WIND       PRES   REMARKS
PATUXENT RIVER CLOUDY    53  46  77 NE16      29.61F
BAY BRIDGE APT NOT AVBL
LEONARDTOWN    CLOUDY    52  45  76 N6        29.63S
DOVER          CLOUDY    53  51  92 NE12      29.62F
GEORGETOWN     CLOUDY    51  49  92 NE10      29.63S FOG
EASTON         CLOUDY   N/A N/A N/A NE13      29.66F
CAMBRIDGE      CLOUDY    52  46  82 N8        29.61F
SALISBURY      CLOUDY    51  47  86 NE10      29.61S
OCEAN CITY     CLOUDY    52  47  83 NE17G28   29.60F
WALLOPS ISLAND CLOUDY    53  47  79 NE21G26   29.59S
ACCOMACK*      CLOUDY   N/A N/A N/A NE9       29.59S
$$

NCZ012>017-030>032-052000-
NORTH CENTRAL AND EASTERN NORTH CAROLINA

CITY           SKY/WX    TMP DP  RH WIND       PRES   REMARKS
ROANOKE RAPIDS RAIN      54  52  94 E5        29.57R
RALEIGH        LGT RAIN  52  50  93 VRB7      29.61R FOG
ELIZABETH CITY CLOUDY    54  49  83 NE20G33   29.54F
AHOSKIE*       CLOUDY    53  51  94 SE6       29.59R
EDENTON*       CLOUDY    57  53  87 NE9       29.56R
CURRITUCK*     CLOUDY    55  50  83 N16G26    29.56S
KILL DEVIL HLS CLOUDY    55  49  81 N10G21    29.52S
MANTEO         CLOUDY    54  51  89 NE18G26   29.53F
CAPE HATTERAS  CLOUDY    58  54  86 NE13G22   29.50S
TARBORO*       CLOUDY    57  55  94 NE8       29.56S
GOLDSBORO      LGT RAIN  57  57 100 NW17G23   29.54R
WASHINGTON     RAIN      56  54  92 NE6       29.54R
GREENVILLE     CLOUDY    57  55  94 N7        29.57R
NEW BERN       RAIN      59  54  83 NE21G26   29.50F
WILMINGTON     TSTM      58  54  86 NW23      29.52R FOG
$$

VAZ048-052000-
ELSEWHERE

CITY           SKY/WX    TMP DP  RH WIND       PRES   REMARKS
HARRISBURG PA  CLOUDY    57  44  62 NE6       29.66F
BALTIMORE      CLOUDY    54  46  74 N10G18    29.64F
ANNAPOLIS      CLOUDY    54  47  77 N12       29.64F
ANDREWS AFB    PTSUNNY   54  48  82 NE10      29.63S
PHILADELPHIA   CLOUDY    56  45  66 NE13      29.65F
HENDERSON NC   HVY RAIN  53  53 100 CALM      29.58S
GREENSBORO     LGT RAIN  51  46  83 NW9       29.64R
ROCKY MOUNT    HVY RAIN  54  51  90 W12G21    29.57R FOG
$$

VAZ100-052000-
MARINE

STATION/POSITION TIME  TEMP    WIND        PRES    WAVE   SWELL
                       AIR SEA DIR/SP/G            HT/PER HT/PER
                 (UTC) (F)     (DEG/KT/KT) (MB)    (FT/S) (FT/S)
BRANDYWINE LGT   1800   50                 1003.2F
CAPE MAY NJ      1800   52 56              1002.9F
LEWES DE         1800   50 55              1003.2F
15NM E FENWICK I 1850   49 51              1001.8F   8/ 7
OCEAN-CITY-INLET 1800   49 55              1002.1F
WACHAPREAGUE VA  1800   52 59              1001.4F
THOMAS POINT MD  1900   53 58   10/ 16/ 18 1004.6F
GOOSES REEF MD   1800   53 58   30/ 14/ 17 1004.5F   2/ 3
COVE POINT MD    1800   51                 1003.5F
SOLOMONS ISLAND  1800   53 60                N/A
BISHOPS HEAD MD  1800   53 58              1001.8F
PINEY POINT MD   1800           50/  8/ 10   N/A
POTOMAC MD       1800   53 60   40/ 14/ 17 1001.7F   1/ 3
CAMBRIDGE MD     1800   52 60              1002.4F
LEWISETTA VA     1800   53 61              1002.4F
RAPPAHANNOCK LGT 1800                      1002.3F
STINGRAY PT      1800   53 61   30/ 16/ 19 1002.4F   3/ 3
YORK RVR RNG VA  1800   54                 1001.1R
YORKTOWN VA      1800   53 63              1001.5F
JAMESTOWN VA     1800   54 67   30/  8/ 12   N/A
DOMINION TERM VA 1800   55                 1001.5F
KIPTOPEKE VA     1800      61                N/A
CHES BAY BRIDGE  1800   53 61              1000.8S
CAPE HENRY VA    1800   51                   N/A
CHESAPEAKE LGHT  1800   51      40/ 23/ 25 1001.4F
WILLOUBY STN VA  1800   54                 1002.4F
CAPE HENRY BUOY  1812      55                N/A     7/ 6
CAPE CHARLES BUO 1826      57                N/A     6/ 7   2/12
OFFSHORE WE BUOY 1821      54                N/A     8/ 7   2/18
64NM E OF VA BCH 1850   51 52   10/ 23/ 27  998.9F   7/ 7
DUCK PIER NC     1800   52 61               999.2F
44100 DUCK FRF   1824      55                N/A     7/ 7
44056 DUCK FRF   1811      59                N/A     6/ 6
OREGON INLET NC  1800   54 61               999.4R
HATTERAS NC      1800   57 68               998.6R
DIAMOND SHLS NC  1850   59 76   20/ 21/ 25  998.1F   5/ 6
CAPE LOOKOUT NC  1800   63      50/ 15/ 17  998.5R
$$




USA.gov is the U.S. government's official web portal to all federal, state and local government web resources and services.